Terminal Aerodrome Forecast
Issued by NWS

Home | Current Version | Previous Version | Text Only | Print | Product List | Glossary On
Versions: 1 2 3 4 5 6 7 8 9 10 11 12 13 14 15
000
FTUS46 KSEW 240500
TAFBFI
TAF
KBFI 240524Z 2406/2506 13009KT P6SM -RA BKN027 OVC050
      TEMPO 2408/2412 5SM RA BR BKN020 OVC030
     FM241200 17011KT P6SM -RA OVC025
     FM241600 18012G22KT P6SM -SHRA OVC030
     FM242200 19012KT P6SM VCSH SCT030 BKN050
     FM250500 16006KT P6SM BKN040 BKN060=

USA.gov is the U.S. government's official web portal to all federal, state and local government web resources and services.